[Date Prev][Date Next][Thread Prev][Thread Next] - [Date Index][Thread Index][Author Index]
2 Line ISS Keps 3-25
- Subject: [sarex] 2 Line ISS Keps 3-25
- From: "Dave Larsen Ph.D." <doc@xxxxxxxxxxx>
- Date: Tue, 25 Mar 2003 08:47:25 -0800
ISS
1 25544U 98067A 03084.53032571 .00013768 00000-0 17855-3 0 8152
2 25544 51.6351 80.4028 0008336 10.1222 134.4981 15.59132900247955
----
Via the sarex mailing list at AMSAT.ORG courtesy of AMSAT-NA.
To unsubscribe, send "unsubscribe sarex" to Majordomo@amsat.org
AMSAT Home